Location: Palmerston North
(40.3500°S, 175.6170°E)
Time: 00:18:37
(UTC+13:00)

ISS - Pass Details

Date: 27 October 2019
Orbit: 412 x 421 km, 51.6° (Epoch: 12 November)

Event Time Altitude Azimuth Distance (km) Brightness Sun altitude
Rises 20:52:41 0° 243° (WSW) 2,380 2.3 -11.8°
Reaches altitude 10° 20:55:46 10° 213° (SSW) 1,519 0.1 -12.3°
Maximum altitude 20:57:22 13° 185° (S) 1,363 -0.7 -12.6°
Drops below altitude 10° 20:58:59 10° 156° (SSE) 1,522 -0.8 -12.8°
Enters shadow 21:01:51 - 127° (SE) 2,312 -0.2 -13.3°
